Paso Robles, CA

8:34 AM PST on February 09, 2016 (GMT -0800)
Paso Robles Municipal

Weather History for KPRB - January, 2013

Change the Weather History Date:

Friday, January 25, 2013

  Actual Average Record
Temperature  
Mean Temperature 59 °F 48 °F  
Max Temperature 65 °F 60 °F 78 °F (2015)
Min Temperature 52 °F 36 °F 22 °F (1976)
Degree Days  
Heating Degree Days 6 17  
Month to date heating degree days 491 450  
Since 1 July heating degree days 1430 1574  
Cooling Degree Days 0 0  
Month to date cooling degree days 0 0  
Year to date cooling degree days 0 0  
Growing Degree Days 8 (Base 50)    
Moisture  
Dew Point 52 °F    
Average Humidity 82    
Maximum Humidity 100    
Minimum Humidity 63    
Precipitation  
Precipitation 0.01 in 0.08 in 2.01 in (1969)
Month to date precipitation 0.69 2.21  
Year to date precipitation 0.69 2.21  
Since 1 July precipitation 3.90  
Sea Level Pressure  
Sea Level Pressure 30.11 in    
Wind  
Wind Speed 5 mph (ENE)    
Max Wind Speed 16 mph    
Max Gust Speed 21 mph    
Visibility 5 miles    
Events Fog , Rain    
T = Trace of Precipitation, MM = Missing Value Source: NWS Daily Summary

Daily Weather History Graph

Daily Weather History Graph

Search for Another Location

Airport or City:

Trip Planner

Search our weather history database for the weather conditions in past years. The results will help you decide how hot, cold, wet, or windy it might be!

Date:

Astronomy

Jan. 25, 2013 Rise Set
Actual Time 7:07 AM PST 5:23 PM PST
Civil Twilight 6:39 AM PST 5:50 PM PST
Nautical Twilight 6:09 AM PST 6:21 PM PST
Astronomical Twilight 5:38 AM PST 6:51 PM PST
Moon 4:25 PM PST (1/25) 5:49 AM PST (1/25)
Length of Visible Light 11h 10m
Length of Day
10h 16m
Waxing Gibbous, 98% of the Moon is Illuminated
Jan 25
Waxing Gibbous
Jan 26
Full
Feb 3
Last Quarter
Feb 9
New
Feb 17
First Quarter

Hourly Weather History & Observations

Time (PST) Temp. Dew Point Humidity Pressure Visibility Wind Dir Wind Speed Gust Speed Precip Events Conditions
12:53 AM 53.1 °F 52.0 °F 96% 30.17 in 5.0 mi Calm Calm - N/A   Overcast
1:53 AM 53.1 °F 52.0 °F 96% 30.17 in 7.0 mi Calm Calm - N/A   Overcast
2:16 AM 53.6 °F 51.8 °F 94% 30.17 in 7.0 mi Calm Calm - N/A   Overcast
2:53 AM 53.1 °F 53.1 °F 100% 30.16 in 4.0 mi Calm Calm - 0.00 in   Overcast
3:04 AM 53.6 °F 51.8 °F 94% 30.15 in 4.0 mi Calm Calm - N/A   Overcast
3:35 AM 53.6 °F 51.8 °F 94% 30.15 in 4.0 mi Calm Calm - N/A   Overcast
4:00 AM 53.6 °F 51.8 °F 94% 30.15 in 3.0 mi Calm Calm - 0.00 in Rain Light Rain
4:21 AM 53.6 °F 51.8 °F 94% 30.14 in 2.5 mi Calm Calm - 0.00 in   Overcast
4:30 AM 53.6 °F 51.8 °F 94% 30.15 in 1.8 mi Calm Calm - 0.00 in   Overcast
4:46 AM 53.6 °F 51.8 °F 94% 30.14 in 1.5 mi Calm Calm - 0.00 in   Overcast
4:53 AM 53.1 °F 52.0 °F 96% 30.14 in 1.0 mi Calm Calm - 0.00 in   Overcast
5:02 AM 53.6 °F 51.8 °F 94% 30.14 in 0.5 mi Calm Calm - N/A Fog Fog
5:32 AM 53.6 °F 51.8 °F 94% 30.14 in 0.2 mi NE 3.5 mph - 0.00 in Fog , Rain Light Rain
5:53 AM 52.0 °F 51.1 °F 97% 30.13 in 0.2 mi NNE 4.6 mph - 0.00 in Fog , Rain Light Rain
6:35 AM 51.8 °F 51.8 °F 100% 30.14 in 0.2 mi NNW 3.5 mph - 0.00 in Fog Fog
6:53 AM 52.0 °F 51.1 °F 97% 30.14 in 0.2 mi NW 3.5 mph - 0.00 in Fog Fog
7:13 AM 51.8 °F 51.8 °F 100% 30.14 in 0.2 mi NW 4.6 mph - N/A Fog Fog
7:44 AM 53.6 °F 51.8 °F 94% 30.15 in 0.5 mi NNW 8.1 mph - N/A Fog Fog
7:53 AM 53.1 °F 52.0 °F 96% 30.15 in 0.2 mi NNW 6.9 mph - N/A Fog Fog
8:53 AM 53.1 °F 53.1 °F 100% 30.15 in 0.2 mi NNE 3.5 mph - 0.01 in Fog Fog
9:40 AM 53.6 °F 53.6 °F 100% 30.16 in 1.0 mi Calm Calm - N/A   Mist
9:48 AM 55.4 °F 55.4 °F 100% 30.16 in 3.0 mi Variable 4.6 mph - N/A   Overcast
9:49 AM 55.0 °F 55.0 °F 100% 30.16 in 3.0 mi ENE 4.6 mph - N/A   Overcast
9:59 AM 55.4 °F 53.6 °F 94% 30.16 in 6.0 mi ENE 4.6 mph - N/A   Overcast
10:53 AM 57.0 °F 52.0 °F 83% 30.15 in 7.0 mi East 6.9 mph - N/A   Mostly Cloudy
11:01 AM 57.2 °F 53.6 °F 88% 30.15 in 8.0 mi East 11.5 mph - N/A   Scattered Clouds
11:53 AM 60.1 °F 53.1 °F 78% 30.12 in 8.0 mi East 12.7 mph - N/A   Mostly Cloudy
12:53 PM 61.0 °F 53.1 °F 75% 30.07 in 10.0 mi ESE 11.5 mph - N/A   Mostly Cloudy
1:53 PM 63.0 °F 53.1 °F 70% 30.05 in 10.0 mi East 10.4 mph - N/A   Partly Cloudy
2:53 PM 64.0 °F 52.0 °F 65% 30.04 in 10.0 mi ESE 10.4 mph - N/A   Scattered Clouds
3:53 PM 61.0 °F 52.0 °F 72% 30.03 in 10.0 mi East 12.7 mph - N/A   Scattered Clouds
4:53 PM 60.1 °F 52.0 °F 75% 30.03 in 10.0 mi East 8.1 mph - N/A   Mostly Cloudy
5:53 PM 57.9 °F 52.0 °F 81% 30.04 in 9.0 mi East 9.2 mph - N/A   Mostly Cloudy
6:53 PM 57.0 °F 52.0 °F 83% 30.04 in 8.0 mi East 6.9 mph - N/A   Partly Cloudy
7:53 PM 55.9 °F 52.0 °F 87% 30.04 in 8.0 mi East 4.6 mph - N/A   Clear
8:53 PM 54.0 °F 51.1 °F 90% 30.04 in 7.0 mi East 5.8 mph - N/A   Clear
9:23 PM 53.6 °F 51.8 °F 94% 30.04 in 7.0 mi Calm Calm - N/A   Mostly Cloudy
9:31 PM 55.4 °F 51.8 °F 88% 30.04 in 8.0 mi Calm Calm - N/A   Scattered Clouds
9:53 PM 55.0 °F 52.0 °F 89% 30.04 in 7.0 mi East 5.8 mph - N/A   Scattered Clouds
10:33 PM 53.6 °F 51.8 °F 94% 30.05 in 6.0 mi Calm Calm - N/A   Mostly Cloudy
10:53 PM 52.0 °F 51.1 °F 97% 30.04 in 5.0 mi Calm Calm - N/A   Overcast
11:08 PM 53.6 °F 51.8 °F 94% 30.04 in 5.0 mi Calm Calm - N/A   Overcast
11:53 PM 52.0 °F 51.1 °F 97% 30.03 in 5.0 mi Calm Calm - N/A   Overcast